Regional Weather Roundup
Issued by NWS

Home | Current Version | Previous Version | Text Only | Print | Product List | Glossary On
Versions: 1 2 3 4 5 6 7 8 9 10 11 12 13 14 15 16 17 18 19 20 21 22 23 24 25 26 27 28 29 30 31 32 33 34 35 36 37 38 39 40 41 42 43 44 45 46 47 48 49 50
000
ASUS45 KABQ 070110
RWRNM
WEATHER ROUNDUP FOR NEW MEXICO
NATIONAL WEATHER SERVICE ALBUQUERQUE NM
700 PM MDT WED MAY 06 2015

NOTE: "FAIR" MEANS FEW OR NO CLOUDS BELOW 12,000 FEET AGL WITH NO
       SIGNIFICANT WEATHER OR OBSTRUCTIONS TO VISION.

      THIS PRODUCT IS RELEASED AS TWO VERSIONS.  ONE VERSION NEAR
      THE TOP OF THE HOUR CONTAINING PRELIMINARY DATA FROM ALBUQUERQUE
      AND OTHER STATIONS.  A FINAL VERSION WITH ADDITIONAL DATA IS
      ISSUED ABOUT 10 MINUTES AFTER THE HOUR.

NMZ501-503-504-510>518-070200-
NORTHWEST PLATEAU/NORTHCENTRAL MOUNTAINS

CITY           SKY/WX    TMP DP  RH WIND       PRES   REMARKS
FARMINGTON     LGT RAIN  52  45  77 NW12      29.86R
LOS ALAMOS     CLOUDY    51  37  58 SW16G23   29.95R
SANTA FE       CLOUDY    54  40  59 NW13      29.90R
TAOS           CLOUDY    55  34  44 S13       29.91R
ANGEL FIRE     FAIR      53  33  48 S13       29.95S

$$
NMZ402-403-502-505>509-070200-
WESTCENTRAL MOUNTAINS/SOUTHWEST MOUNTAINS

CITY           SKY/WX    TMP DP  RH WIND       PRES   REMARKS
GALLUP         MOSUNNY   60  34  37 W10       29.88F
GRANTS         PTSUNNY   59  33  38 W6        29.93F
SILVER CITY      N/A     72  18  13 SW12      29.89S

$$
NMZ407-409-411-412-070200-
SOUTHERN DESERTS

CITY           SKY/WX    TMP DP  RH WIND       PRES   REMARKS
LORDSBURG      FAIR      75  12   9 W10       29.80F
DEMING         SUNNY     78  14   9 W15G21    29.81S
LAS CRUCES     CLEAR     78  20  11 W17       29.83S
HOLLOMAN AFB   PTCLDY    80  19  10 SW17      29.78F
ALAMOGORDO     PTCLDY    77  23  13 SW14      29.81S
T OR C         MOSUNNY   76  18  11 S16G25    29.80R

$$
NMZ519>523-070200-
CENTRAL VALLEYS/CENTRAL HIGHLANDS

CITY           SKY/WX    TMP DP  RH WIND       PRES   REMARKS
ALBUQUERQUE    PTSUNNY   68  36  30 W12G18    29.85R
DOUBLE EAGLE   PTSUNNY   63  36  36 W17       29.89R
MORIARTY ARPT  FAIR      62  31  30 SW6       29.90F
CLINES CORNERS MOCLDY    61  30  31 W15       29.91F
BELEN          FAIR      69  34  26 NW12      29.83S
SOCORRO        FAIR      73  24  15 S13G20    29.78F

$$
NMZ524>526-539-540-070200-
SOUTHCENTRAL MOUNTAINS

CITY           SKY/WX    TMP DP  RH WIND       PRES   REMARKS
RUIDOSO        CLEAR     64  23  20 SW21      29.96S

$$
NMZ527>531-070200-
NORTHEAST HIGHLANDS/NORTHEAST PLAINS

CITY           SKY/WX    TMP DP  RH WIND       PRES   REMARKS
LAS VEGAS      MOCLDY    59  35  40 W20       29.89R
RATON          PTCLDY    64  33  31 W16       29.79R
CLAYTON        PTCLDY    71  40  32 SW23G35   29.71S

$$
NMZ532>537-070200-
EASTCENTRAL PLAINS

CITY           SKY/WX    TMP DP  RH WIND       PRES   REMARKS
TUCUMCARI      MOCLDY    72  43  35 SW14      29.74S
CANNON AFB     CLEAR     72  42  33 SW13      29.80S
CLOVIS AIRPORT CLEAR     72  45  37 SW12      29.81S

$$
NMZ028-029-538-070200-
SOUTHEAST PLAINS

CITY           SKY/WX    TMP DP  RH WIND       PRES   REMARKS
ROSWELL        CLEAR     79  36  21 S17       29.74S
ARTESIA        CLEAR     82  30  15 S14       29.77S
CARLSBAD       CLEAR     81  39  22 SW5       29.74S
HOBBS          CLEAR     75  45  33 S10       29.79F


$$



USA.gov is the U.S. government's official web portal to all federal, state and local government web resources and services.